Home   Weather   Barsinghausen   Past weeks

Flag for Germany Past Weather in Barsinghausen, Lower Saxony, Germany — Yesterday and Last 2 Weeks

Now
66 °F

Passing clouds.


Feels Like: 66 °F
Forecast: 58 / 67 °F
Wind: 5 mph from Southwest

Location: Wunstorf Airport

Current Time: Aug 17, 2017 at 11:39:00 pm

Latest Report: Aug 17, 2017 at 10:20 pm


Visibility: N/A

Pressure: 29.98 "Hg

Humidity: 88%

Dew Point: 63 °F

Location of BarsinghausenLocation

Past Weather in Barsinghausen — Graph

°F

Barsinghausen Temperature Yesterday

Maximum temperature yesterday: 73 °F (at 3:20 pm)
Minimum temperature yesterday: 63 °F (at 12:20 am)
Average temperature yesterday: 67 °F

High & Low Weather Summary for the Past Weeks

 TemperatureHumidityPressure
High82 °F (Aug 15, 5:20 pm)100% (Aug 11, 4:20 am)30.21 "Hg (Aug 11, 4:20 am)
Low50 °F (Aug 7, 5:20 am)33% (Aug 7, 1:20 pm)29.74 "Hg (Aug 3, 2:20 pm)
Average64 °F74%30.01 "Hg
* Reported Aug 2 10:20 pm — Aug 17 10:20 pm, Barsinghausen. Weather by CustomWeather, © 2017

Note: Actual official high and low records may vary slightly from our data, if they occured in-between our weather recording intervals... More about our weather records

Advertising

Barsinghausen Weather History for the Previous 24 Hours

Scroll right to see more
 ConditionsComfort  
Time TempWeatherWind HumidityBarometerVisibility
10:20 pm
Thu, Aug 17
66 °FPassing clouds.5 mph88%29.98 "HgN/A
9:20 pm66 °FPartly cloudy.5 mph88%29.95 "HgN/A
8:20 pm66 °FBroken clouds.3 mph94%29.95 "HgN/A
7:20 pm66 °FLight rain. Broken clouds.7 mph94%29.95 "HgN/A
6:20 pm66 °FLight rain. Broken clouds.14 mph94%29.95 "HgN/A
6:06 pm68 °FRain. Fog.9 mph83%29.95 "Hg2 mi
5:20 pm72 °FLight rain. Mostly cloudy.7 mph73%29.95 "HgN/A
4:20 pm75 °FLight rain. More clouds than sun.10 mph61%29.92 "HgN/A
3:20 pm77 °FLight rain. More clouds than sun.7 mph54%29.95 "HgN/A
2:20 pm75 °FLight rain. More clouds than sun.10 mph54%29.98 "HgN/A
1:20 pm77 °FBroken clouds.12 mph47%29.98 "HgN/A
12:20 pm75 °FBroken clouds.12 mph61%29.98 "HgN/A
12:05 pm75 °FBroken clouds.10 mph57%29.98 "HgN/A
11:20 am73 °FBroken clouds.10 mph65%30.01 "HgN/A
10:20 am73 °FBroken clouds.9 mph65%30.01 "HgN/A
9:20 am70 °FPartly sunny.9 mph73%30.01 "HgN/A
8:20 am64 °FBroken clouds.7 mph83%30.04 "HgN/A
7:20 am63 °FScattered clouds.7 mph88%30.04 "HgN/A
6:20 am59 °FScattered clouds.6 mph94%30.04 "HgN/A
5:20 am61 °FPassing clouds.6 mph88%30.07 "HgN/A
4:20 am59 °FPassing clouds.7 mph88%30.07 "HgN/A
3:20 am61 °FPassing clouds.2 mph83%30.09 "HgN/A
2:20 am61 °FPassing clouds.2 mph83%30.09 "HgN/A
1:20 am61 °FPassing clouds.5 mph88%30.12 "HgN/A
12:20 am61 °FPassing clouds.2 mph88%30.12 "HgN/A
11:20 pm
Wed, Aug 16
63 °FPartly cloudy.2 mph83%30.15 "HgN/A
Weather by CustomWeather, © 2017

See weather overviewHow to use our weather pages